Hourly Data Report for January 02, 2018

All times are specified in Local Standard Time (LST). Add 1 hour to adjust for Daylight Saving Time where and when it is observed.

ST. JOHN'S INTL A
NEWFOUNDLAND

47°37'07.000" N
52°45'09.000" W
140.50 m
8403505
71801
YYT

Download Data

Hourly Data (January 2018)
Hourly Data Report for January 2, 2018
Temp Definition
°C
Dew Point Temp Definition
°C
Rel Hum Definition
%
Wind Dir Definition
10's deg

Wind Spd Definition
km/h
Visibility Definition
km
Stn Press Definition
kPa
Hmdx Definition


Wind Chill Definition


Weather Definition


TIME
00:30 Legend Double Dagger -2.9 -3.9 93 26 25 24.1 98.80   -10 LegendNANA
01:30 Legend Double Dagger -3.9 -5.1 91 24 22 24.1 98.85   -10 LegendNANA
02:30 Legend Double Dagger -4.4 -5.2 94 24 23 24.1 98.94   -11 Mainly Clear
03:30 Legend Double Dagger -4.4 -5.3 94 24 17 24.1 98.97   -10 LegendNANA
04:30 Legend Double Dagger -3.9 -4.8 94 25 24 24.1 99.03   -11 LegendNANA
05:30 Legend Double Dagger -3.8 -4.5 94 25 20 24.1 99.07   -10 Mainly Clear
06:30 Legend Double Dagger -4.3 -5.3 93 25 16 24.1 99.14   -10 LegendNANA
07:30 Legend Double Dagger -4.6 -5.6 93 24 22 24.1 99.19   -11 LegendNANA
08:30 Legend Double Dagger -4.3 -5.4 92 24 20 24.1 99.24   -11 Mainly Clear
09:30 Legend Double Dagger -3.5 -5.4 87 25 19 24.1 99.27   -9 LegendNANA
10:30 Legend Double Dagger -2.9 -5.3 84 24 17 24.1 99.28   -8 LegendNANA
11:30 Legend Double Dagger -2.2 -5.1 80 24 20 24.1 99.25   -8 Mainly Clear
12:30 Legend Double Dagger -2.4 -5.7 78 24 17 24.1 99.19   -8 LegendNANA
13:30 Legend Double Dagger -1.8 -6.2 72 24 12 24.1 99.12   -6 LegendNANA
14:30 Legend Double Dagger -0.9 -6.6 65 20 12 24.1 99.07   -5 Mostly Cloudy
15:30 Legend Double Dagger -2.7 -7.0 72 26 12 24.1 99.02   -7 LegendNANA
16:30 Legend Double Dagger -3.7 -6.7 80 21 14 24.1 99.08   -9 LegendNANA
17:30 Legend Double Dagger -3.8 -7.0 79 22 12 24.1 99.05   -8 Mostly Cloudy
18:30 Legend Double Dagger -4.1 -7.0 80 21 10 24.1 99.01   -8 LegendNANA
19:30 Legend Double Dagger -4.5 -7.5 80 21 18 24.1 99.02   -11 LegendNANA
20:30 Legend Double Dagger -4.8 -6.6 87 23 16 24.1 99.01   -11 Cloudy
21:30 Legend Double Dagger -5.4 -7.9 83 23 13 24.1 98.97   -11 LegendNANA
22:30 Legend Double Dagger -7.1 -9.1 86 24 19 24.1 98.97   -14 LegendNANA
23:30 Legend Double Dagger -7.1 -9.0 86 25 17 24.1 98.96   -14 Mainly Clear

Notes on Data Quality.

Legend

  • E = Estimated
  • M = Missing
  • NA = Not Available
  • ‡ = Partner data that is not subject to review by the National Climate Archives
Date modified: